Change the Weather History Date:

Friday, October 21, 2011

  Actual Average Record
Temperature  
Mean Temperature 45 °F -  
Max Temperature 62 °F 57 °F 79 °F (1953)
Min Temperature 28 °F 36 °F 21 °F (1982)
Degree Days  
Heating Degree Days 20    
Moisture  
Dew Point 33 °F    
Average Humidity 66    
Maximum Humidity 100    
Minimum Humidity 32    
Precipitation  
Precipitation 0.00 in - - ()
Sea Level Pressure  
Sea Level Pressure 30.00 in    
Wind  
Wind Speed 3 mph (West)    
Max Wind Speed 10 mph    
Max Gust Speed -    
Visibility 10 miles    
Events      
Averages and records for this station are not official NWS values.
T = Trace of Precipitation, MM = Missing Value Source: NWS Daily Summary

Daily Weather History Graph

Daily Weather History Graph

Search for Another Location

Airport or City:

Trip Planner

Search our weather history database for the weather conditions in past years. The results will help you decide how hot, cold, wet, or windy it might be!

Date:

Astronomy

Oct. 21, 2011 Rise Set
Actual Time 7:41 AM CDT 6:23 PM CDT
Civil Twilight 7:11 AM CDT 6:53 PM CDT
Nautical Twilight 6:37 AM CDT 7:27 PM CDT
Astronomical Twilight 6:03 AM CDT 8:01 PM CDT
Moon 1:16 AM CDT (10/21) 3:22 PM CDT (10/21)
Length of Visible Light 11h 41m
Length of Day
10h 41m
Waning Crescent, 33% of the Moon is Illuminated
Oct 21
Waning Crescent
Oct 26
New
Nov 2
First Quarter
Nov 10
Full
Nov 18
Last Quarter

Hourly Weather History & Observations

Time (CDT) Temp. Windchill Dew Point Humidity Pressure Visibility Wind Dir Wind Speed Gust Speed Precip Events Conditions
12:13 AM 35.6 °F 31.7 °F 33.8 °F 93% 30.00 in 10.0 mi West 4.6 mph - N/A   Clear
12:33 AM 35.6 °F 32.8 °F 32.0 °F 87% 30.00 in 10.0 mi West 3.5 mph - N/A   Clear
12:53 AM 35.6 °F - 32.0 °F 87% 30.01 in 10.0 mi Calm Calm - N/A   Clear
1:13 AM 33.8 °F - 30.2 °F 87% 30.01 in 10.0 mi Calm Calm - N/A   Clear
1:33 AM 33.8 °F - 32.0 °F 93% 30.00 in 10.0 mi Calm Calm - N/A   Clear
2:13 AM 30.2 °F 26.7 °F 30.2 °F 100% 30.01 in 10.0 mi West 3.5 mph - N/A   Clear
2:32 AM 32.0 °F - 30.2 °F 93% 30.01 in 10.0 mi Calm Calm - N/A   Clear
2:53 AM 32.0 °F - 30.2 °F 93% 30.01 in 10.0 mi Calm Calm - N/A   Clear
3:13 AM 30.2 °F - 30.2 °F 100% 30.01 in 10.0 mi Calm Calm - N/A   Clear
3:32 AM 30.2 °F - 30.2 °F 100% 30.01 in 10.0 mi Calm Calm - N/A   Clear
3:53 AM 30.2 °F - 30.2 °F 100% 30.01 in 10.0 mi Calm Calm - N/A   Clear
4:13 AM 28.4 °F - 28.4 °F 100% 30.01 in 10.0 mi Calm Calm - N/A   Clear
4:33 AM 28.4 °F - 28.4 °F 100% 30.01 in 10.0 mi Calm Calm - N/A   Clear
4:53 AM 28.4 °F - 28.4 °F 100% 30.01 in 10.0 mi Calm Calm - N/A   Clear
5:13 AM 32.0 °F - 30.2 °F 93% 30.01 in 10.0 mi Calm Calm - N/A   Clear
5:53 AM 30.2 °F - 30.2 °F 100% 30.01 in 10.0 mi Calm Calm - N/A   Clear
6:13 AM 30.2 °F - 28.4 °F 93% 30.01 in 10.0 mi Calm Calm - N/A   Clear
7:13 AM 30.2 °F - 30.2 °F 100% 30.02 in 10.0 mi Calm Calm - N/A   Clear
7:33 AM 28.4 °F - 28.4 °F 100% 30.02 in 10.0 mi Calm Calm - N/A   Clear
7:53 AM 28.4 °F - 28.4 °F 100% 30.02 in 10.0 mi Calm Calm - N/A   Clear
8:13 AM 30.2 °F - 28.4 °F 93% 30.03 in 10.0 mi Calm Calm - N/A   Clear
8:33 AM 33.8 °F - 30.2 °F 87% 30.02 in 10.0 mi Calm Calm - N/A   Clear
8:53 AM 35.6 °F 32.8 °F 30.2 °F 81% 30.02 in 10.0 mi South 3.5 mph - N/A   Clear
9:12 AM 37.4 °F - 32.0 °F 81% 30.02 in 10.0 mi Calm Calm - N/A   Clear
9:33 AM 39.2 °F 37.0 °F 33.8 °F 81% 30.02 in 10.0 mi SSW 3.5 mph - N/A   Clear
10:13 AM 44.6 °F 43.1 °F 33.8 °F 66% 30.01 in 10.0 mi SSW 3.5 mph - N/A   Clear
10:33 AM 46.4 °F 45.2 °F 33.8 °F 62% 30.01 in 10.0 mi SW 3.5 mph - N/A   Clear
10:53 AM 48.2 °F - 32.0 °F 54% 30.00 in 10.0 mi SW 4.6 mph - N/A   Clear
11:13 AM 50.0 °F - 30.2 °F 47% 30.00 in 10.0 mi SSW 5.8 mph - N/A   Clear
11:33 AM 51.8 °F - 30.2 °F 44% 29.99 in 10.0 mi Calm Calm - N/A   Clear
11:53 AM 53.6 °F - 30.2 °F 41% 29.99 in 10.0 mi SSW 4.6 mph - N/A   Clear
12:13 PM 55.4 °F - 30.2 °F 38% 29.99 in 10.0 mi SW 6.9 mph - N/A   Clear
12:33 PM 55.4 °F - 30.2 °F 38% 29.98 in 10.0 mi SW 6.9 mph - N/A   Clear
12:53 PM 57.2 °F - 32.0 °F 38% 29.98 in 10.0 mi SSE 3.5 mph - N/A   Clear
1:13 PM 57.2 °F - 32.0 °F 38% 29.97 in 10.0 mi SSW 4.6 mph - N/A   Clear
1:33 PM 59.0 °F - 32.0 °F 36% 29.96 in 10.0 mi SSW 5.8 mph - N/A   Clear
1:53 PM 60.8 °F - 32.0 °F 34% 29.96 in 10.0 mi South 5.8 mph - N/A   Clear
2:13 PM 60.8 °F - 32.0 °F 34% 29.96 in 10.0 mi SSW 6.9 mph - N/A   Clear
2:33 PM 62.6 °F - 32.0 °F 32% 29.95 in 10.0 mi WSW 5.8 mph - N/A   Clear
2:53 PM 62.6 °F - 32.0 °F 32% 29.95 in 10.0 mi WSW 5.8 mph - N/A   Clear
3:13 PM 62.6 °F - 33.8 °F 34% 29.95 in 10.0 mi West 6.9 mph - N/A   Clear
3:33 PM 62.6 °F - 33.8 °F 34% 29.95 in 10.0 mi West 8.1 mph - N/A   Clear
3:53 PM 62.6 °F - 33.8 °F 34% 29.95 in 10.0 mi West 8.1 mph - N/A   Clear
4:13 PM 62.6 °F - 33.8 °F 34% 29.95 in 10.0 mi West 6.9 mph - N/A   Clear
4:33 PM 62.6 °F - 33.8 °F 34% 29.95 in 10.0 mi West 8.1 mph - N/A   Clear
4:53 PM 60.8 °F - 35.6 °F 39% 29.96 in 10.0 mi WNW 10.4 mph - N/A   Clear
5:13 PM 60.8 °F - 35.6 °F 39% 29.96 in 10.0 mi WNW 8.1 mph - N/A   Clear
5:33 PM 59.0 °F - 37.4 °F 45% 29.96 in 10.0 mi WNW 5.8 mph - N/A   Clear
5:53 PM 57.2 °F - 35.6 °F 44% 29.96 in 10.0 mi WNW 5.8 mph - N/A   Clear
6:13 PM 55.4 °F - 37.4 °F 51% 29.96 in 10.0 mi WNW 3.5 mph - N/A   Clear
6:33 PM 55.4 °F - 37.4 °F 51% 29.97 in 10.0 mi WNW 4.6 mph - N/A   Clear
6:53 PM 53.6 °F - 37.4 °F 54% 29.98 in 10.0 mi WNW 5.8 mph - N/A   Clear
7:13 PM 53.6 °F - 37.4 °F 54% 29.99 in 10.0 mi WNW 4.6 mph - N/A   Clear
7:33 PM 51.8 °F - 37.4 °F 58% 29.99 in 10.0 mi Calm Calm - N/A   Clear
7:53 PM 51.8 °F - 37.4 °F 58% 29.99 in 10.0 mi WNW 4.6 mph - N/A   Clear
8:13 PM 51.8 °F - 37.4 °F 58% 30.00 in 10.0 mi WNW 5.8 mph - N/A   Clear
8:33 PM 51.8 °F - 39.2 °F 62% 30.00 in 10.0 mi WNW 4.6 mph - N/A   Clear
8:53 PM 50.0 °F - 37.4 °F 62% 30.00 in 10.0 mi WNW 5.8 mph - N/A   Clear
9:13 PM 48.2 °F - 37.4 °F 66% 30.01 in 10.0 mi WNW 4.6 mph - N/A   Clear
9:53 PM 48.2 °F - 37.4 °F 66% 30.02 in 10.0 mi WNW 4.6 mph - N/A   Clear
10:13 PM 48.2 °F - 37.4 °F 66% 30.02 in 10.0 mi NW 5.8 mph - N/A   Clear
10:33 PM 48.2 °F - 37.4 °F 66% 30.03 in 10.0 mi NW 5.8 mph - N/A   Clear
10:53 PM 48.2 °F - 37.4 °F 66% 30.03 in 10.0 mi NW 5.8 mph - N/A   Clear
11:13 PM 46.4 °F 44.3 °F 37.4 °F 71% 30.04 in 10.0 mi West 4.6 mph - N/A   Clear
11:33 PM 46.4 °F 43.5 °F 37.4 °F 71% 30.04 in 10.0 mi NW 5.8 mph - N/A   Clear
11:52 PM 44.6 °F 41.4 °F 37.4 °F 76% 30.05 in 10.0 mi WNW 5.8 mph - N/A   Clear